Content
SEND FEEDBACK

Daily
Averages
Monthly
Summary
Philippines

QUEZON CITY, PHILIPPINES


Home > Asia > Philippines
Elevation: 46 meters     Latitude: 14 39N     Longitude: 121 03E

WEATHER
 
SELECT A DAY
Number of Records: 172,724;   Date Range: 7/1/96 - 9/16/14
 
SHARE

PRINT THIS DATA

[ ← Previous Day ]
WEATHER ALMANAC - 25 FEBRUARY, 2013
[ Next Day → ]
[ °F ]   °C
Weather ElementAverageHighLow
Temperature28.1 °C31.1 °C (2:00 pm)25 °C (6:00 am)
Dewpoint22.4 °C24 °C (1:00 am)21 °C (3:00 pm)
Humidity70.3 %89 % (1:00 am)49 % (2:00 pm)
Barometer1013.2 hPa1015.2 hPa (10:00 am)1011.2 hPa (3:00 pm)
Wind Speed16.7 km/h28.8 km/h (11:00 am)
Wind Gust42.6 km/h (4:00 pm)
Weather ElementAverage
Visibility9.8 km
Wind DirectionE (92.6 °)

Weather ElementTotal
Precipitation---
Cooling Degree Days9.7 (Base 18.3)
Growing Degree Days18.1 (Base 10)
Averaged from 31 records on 25 February, 2013
WEATHER CONDITIONS BREAKOUT
WIND DIRECTION BREAKOUT
WEATHER BY HOUR - 25 FEBRUARY, 2013
[ °F ]   °C
Local TimeTemperatureDewpointHumidityBarometerVisibilityWind DirectionWind SpeedGust SpeedPrecipitationEventsConditions
1:00 AM26 °C24 °C89 %1013.2 hPa10 kmEast (100°)13 km/hMostly Cloudy
2:00 AM25.6 °C23.3 °C84 %1013.2 hPa9.7 kmEast (80°)10.8 km/hHaze
2:00 AM26 °C23 °C83 %1013.2 hPa10 kmEast (80°)11.1 km/hMostly Cloudy
3:00 AM26 °C23 °C83 %1012.2 hPa10 kmESE (120°)3.7 km/hMostly Cloudy
4:00 AM26 °C23 °C83 %1012.2 hPa10 kmENE (70°)5.6 km/hMostly Cloudy
5:00 AM25.6 °C22.8 °C82 %1012.5 hPa9.7 kmENE (70°)7.2 km/hHaze
5:00 AM26 °C23 °C83 %1012.2 hPa10 kmEast (90°)5.6 km/hScattered Clouds
6:00 AM25 °C23 °C89 %1013.2 hPa10 kmEast (90°)5.6 km/hScattered Clouds
7:00 AM26 °C24 °C89 %1014.2 hPa10 kmENE (60°)9.3 km/hPartly Cloudy
8:00 AM27.2 °C22.8 °C71 %1014.6 hPa9.7 kmEast (90°)10.8 km/hHaze
8:00 AM27 °C23 °C79 %1014.2 hPa10 kmEast (90°)13 km/hScattered Clouds
9:00 AM29 °C23 °C70 %1014.2 hPa10 kmEast (90°)14.8 km/hScattered Clouds
10:00 AM30 °C22 °C62 %1015.2 hPa10 kmEast (100°)24.1 km/hScattered Clouds
11:00 AM30.6 °C22.2 °C52 %1014.6 hPa9.7 kmEast (90°)28.8 km/hPartly Cloudy
11:00 AM31 °C22 °C58 %1014.2 hPa10 kmEast (90°)27.8 km/hPartly Cloudy
12:00 PM31 °C22 °C58 %1013.2 hPa10 kmESE (110°)25.9 km/hPartly Cloudy
1:00 PM31 °C22 °C58 %1013.2 hPa10 kmEast (90°)27.8 km/hPartly Cloudy
2:00 PM31.1 °C21.7 °C49 %1012.5 hPa9.7 kmESE (110°)25.3 km/hPartly Cloudy
2:00 PM31 °C22 °C58 %1012.2 hPa10 kmESE (110°)25.9 km/hPartly Cloudy
3:00 PM31 °C21 °C55 %1011.2 hPa10 kmESE (110°)27.8 km/hPartly Cloudy
4:00 PM31 °C22 °C58 %1011.2 hPa10 kmEast (100°)24.1 km/h42.6 km/hPartly Cloudy
5:00 PM29.4 °C21.7 °C55 %1011.5 hPa9.7 kmEast (100°)25.3 km/hScattered Clouds
5:00 PM29 °C22 °C66 %1011.2 hPa10 kmEast (100°)25.9 km/hPartly Cloudy
6:00 PM29 °C22 °C66 %1012.2 hPa10 kmEast (90°)16.7 km/hPartly Cloudy
7:00 PM28 °C22 °C70 %1012.2 hPa10 kmEast (90°)14.8 km/hPartly Cloudy
8:00 PM27.2 °C21.7 °C66 %1013.5 hPa9.7 kmEast (100°)14.3 km/hScattered Clouds
8:00 PM27 °C22 °C74 %1013.2 hPa10 kmEast (100°)14.8 km/hPartly Cloudy
9:00 PM27 °C22 °C74 %1014.2 hPa10 kmEast (90°)18.5 km/hPartly Cloudy
10:00 PM27 °C22 °C74 %1014.2 hPa10 kmEast (90°)16.7 km/hPartly Cloudy
11:00 PM26.7 °C21.7 °C66 %1014.6 hPa9.7 kmEast (80°)10.8 km/hScattered Clouds
11:00 PM27 °C22 °C74 %1014.2 hPa10 kmEast (90°)11.1 km/hPartly Cloudy
Hourly data recorded from RPLL, located 0 kilometers away from Quezon City, Philippines







STORIES FROM OUR PARTNERS